TimePDT,TemperatureF,Dew PointF,Humidity,Sea Level PressureIn,VisibilityMPH,Wind Direction,Wind SpeedMPH,Gust SpeedMPH,PrecipitationIn,Events,Conditions,WindDirDegrees,DateUTC
12:15 AM,50.0,46.4,87,30.05,7.0,WNW,18.4,23.0,N/A,,Mostly Cloudy,300,2013-03-17 07:15:00
12:35 AM,50.0,44.6,82,30.05,7.0,NW,19.6,23.0,N/A,,Partly Cloudy,310,2013-03-17 07:35:00
12:55 AM,50.0,44.6,82,30.04,7.0,NW,19.6,24.2,N/A,,Clear,310,2013-03-17 07:55:00
1:15 AM,50.0,46.4,87,30.04,8.0,NW,21.9,25.3,N/A,,Clear,310,2013-03-17 08:15:00
1:35 AM,50.0,44.6,82,30.03,8.0,WNW,21.9,28.8,N/A,,Clear,300,2013-03-17 08:35:00
1:55 AM,48.2,44.6,87,30.03,8.0,WNW,21.9,28.8,N/A,,Clear,300,2013-03-17 08:55:00
2:15 AM,50.0,42.8,76,30.03,10.0,NW,20.7,28.8,N/A,,Clear,310,2013-03-17 09:15:00
2:35 AM,48.2,41.0,76,30.03,10.0,WNW,23.0,28.8,N/A,,Clear,300,2013-03-17 09:35:00
2:55 AM,48.2,35.6,62,30.04,10.0,WNW,20.7,29.9,N/A,,Clear,300,2013-03-17 09:55:00
3:35 AM,46.4,39.2,76,30.04,10.0,NW,16.1,-,N/A,,Clear,320,2013-03-17 10:35:00
3:55 AM,46.4,39.2,76,30.04,10.0,WNW,12.7,17.3,N/A,,Clear,300,2013-03-17 10:55:00
4:15 AM,46.4,39.2,76,30.03,10.0,NW,16.1,-,N/A,,Clear,310,2013-03-17 11:15:00
4:35 AM,46.4,39.2,76,30.03,10.0,WNW,16.1,-,N/A,,Clear,300,2013-03-17 11:35:00
4:55 AM,46.4,37.4,71,30.03,10.0,WNW,16.1,-,N/A,,Clear,300,2013-03-17 11:55:00
5:15 AM,46.4,37.4,71,30.05,10.0,WNW,12.7,-,N/A,,Clear,300,2013-03-17 12:15:00
5:35 AM,46.4,37.4,71,30.05,10.0,WNW,10.4,-,N/A,,Clear,290,2013-03-17 12:35:00
5:55 AM,44.6,37.4,76,30.06,10.0,West,13.8,-,N/A,,Clear,260,2013-03-17 12:55:00
6:15 AM,42.8,37.4,81,30.06,10.0,West,12.7,-,N/A,,Clear,260,2013-03-17 13:15:00
6:35 AM,42.8,37.4,81,30.07,10.0,WSW,15.0,18.4,N/A,,Clear,250,2013-03-17 13:35:00
6:55 AM,41.0,37.4,87,30.07,10.0,WNW,10.4,-,N/A,,Clear,290,2013-03-17 13:55:00
7:15 AM,42.8,37.4,81,30.08,10.0,West,11.5,19.6,N/A,,Clear,260,2013-03-17 14:15:00
7:35 AM,42.8,37.4,81,30.09,10.0,West,12.7,17.3,N/A,,Clear,270,2013-03-17 14:35:00
7:55 AM,44.6,37.4,76,30.09,10.0,West,15.0,-,N/A,,Clear,270,2013-03-17 14:55:00
8:15 AM,46.4,37.4,71,30.09,10.0,West,13.8,19.6,N/A,,Clear,280,2013-03-17 15:15:00
8:35 AM,48.2,35.6,62,30.09,10.0,West,12.7,18.4,N/A,,Clear,280,2013-03-17 15:35:00
8:55 AM,48.2,35.6,62,30.10,10.0,West,15.0,20.7,N/A,,Clear,280,2013-03-17 15:55:00
9:15 AM,48.2,35.6,62,30.11,10.0,West,18.4,25.3,N/A,,Clear,260,2013-03-17 16:15:00
9:35 AM,50.0,35.6,58,30.11,10.0,West,16.1,24.2,N/A,,Clear,270,2013-03-17 16:35:00
9:55 AM,50.0,35.6,58,30.12,10.0,West,17.3,-,N/A,,Clear,260,2013-03-17 16:55:00
10:15 AM,51.8,35.6,54,30.13,10.0,West,17.3,-,N/A,,Clear,270,2013-03-17 17:15:00
10:35 AM,53.6,35.6,51,30.13,10.0,West,15.0,21.9,N/A,,Clear,270,2013-03-17 17:35:00
10:55 AM,53.6,37.4,54,30.13,9.0,NW,12.7,18.4,N/A,,Clear,320,2013-03-17 17:55:00
11:15 AM,53.6,39.2,58,30.12,9.0,NW,12.7,-,N/A,,Clear,320,2013-03-17 18:15:00
11:35 AM,55.4,39.2,54,30.11,8.0,NW,13.8,-,N/A,,Clear,320,2013-03-17 18:35:00
11:55 AM,55.4,39.2,54,30.12,10.0,NW,16.1,24.2,N/A,,Clear,310,2013-03-17 18:55:00
12:15 PM,55.4,39.2,54,30.11,10.0,NW,17.3,-,N/A,,Clear,310,2013-03-17 19:15:00
12:35 PM,57.2,39.2,51,30.11,10.0,WNW,12.7,19.6,N/A,,Clear,300,2013-03-17 19:35:00
1:15 PM,59.0,37.4,45,30.09,10.0,NW,17.3,23.0,N/A,,Clear,320,2013-03-17 20:15:00
1:35 PM,59.0,37.4,45,30.08,10.0,NW,19.6,25.3,N/A,,Clear,320,2013-03-17 20:35:00
1:55 PM,59.0,35.6,42,30.07,9.0,NW,18.4,26.5,N/A,,Clear,320,2013-03-17 20:55:00
2:15 PM,59.0,37.4,45,30.06,10.0,NW,18.4,-,N/A,,Clear,320,2013-03-17 21:15:00
2:35 PM,59.0,37.4,45,30.05,10.0,NW,18.4,26.5,N/A,,Clear,320,2013-03-17 21:35:00
2:55 PM,59.0,35.6,42,30.05,10.0,NW,18.4,23.0,N/A,,Clear,320,2013-03-17 21:55:00
3:15 PM,59.0,35.6,42,30.05,10.0,NW,17.3,24.2,N/A,,Clear,320,2013-03-17 22:15:00
3:35 PM,59.0,35.6,42,30.05,10.0,NW,17.3,23.0,N/A,,Clear,310,2013-03-17 22:35:00
3:55 PM,57.2,35.6,44,30.06,10.0,NW,16.1,23.0,N/A,,Clear,310,2013-03-17 22:55:00
4:15 PM,57.2,35.6,44,30.06,10.0,NW,16.1,25.3,N/A,,Clear,310,2013-03-17 23:15:00
4:35 PM,57.2,35.6,44,30.05,10.0,NW,12.7,21.9,N/A,,Clear,310,2013-03-17 23:35:00
4:55 PM,57.2,35.6,44,30.06,10.0,NW,17.3,20.7,N/A,,Clear,310,2013-03-17 23:55:00
5:15 PM,57.2,35.6,44,30.06,10.0,NW,16.1,23.0,N/A,,Clear,320,2013-03-18 00:15:00
5:35 PM,55.4,33.8,44,30.05,10.0,WNW,15.0,19.6,N/A,,Clear,300,2013-03-18 00:35:00
5:55 PM,55.4,33.8,44,30.06,10.0,NW,17.3,23.0,N/A,,Clear,310,2013-03-18 00:55:00
6:15 PM,53.6,33.8,47,30.06,10.0,WNW,16.1,21.9,N/A,,Clear,300,2013-03-18 01:15:00
6:35 PM,53.6,35.6,51,30.07,10.0,WNW,13.8,-,N/A,,Clear,290,2013-03-18 01:35:00
6:55 PM,50.0,37.4,62,30.07,10.0,West,13.8,-,N/A,,Clear,280,2013-03-18 01:55:00
7:15 PM,50.0,37.4,62,30.07,10.0,West,12.7,-,N/A,,Clear,270,2013-03-18 02:15:00
7:35 PM,48.2,35.6,62,30.06,10.0,West,13.8,-,N/A,,Clear,270,2013-03-18 02:35:00
7:55 PM,48.2,35.6,62,30.07,10.0,West,13.8,-,N/A,,Clear,270,2013-03-18 02:55:00
8:15 PM,48.2,35.6,62,30.07,10.0,West,10.4,-,N/A,,Clear,280,2013-03-18 03:15:00
8:35 PM,48.2,35.6,62,30.07,10.0,West,11.5,-,N/A,,Clear,260,2013-03-18 03:35:00
8:55 PM,48.2,35.6,62,30.07,10.0,WNW,10.4,-,N/A,,Clear,290,2013-03-18 03:55:00
9:15 PM,48.2,35.6,62,30.07,10.0,West,12.7,-,N/A,,Clear,280,2013-03-18 04:15:00
9:35 PM,48.2,35.6,62,30.08,10.0,WNW,10.4,-,N/A,,Clear,290,2013-03-18 04:35:00
9:55 PM,48.2,33.8,58,30.08,10.0,West,11.5,-,N/A,,Clear,280,2013-03-18 04:55:00
10:15 PM,48.2,33.8,58,30.08,10.0,WNW,11.5,-,N/A,,Clear,290,2013-03-18 05:15:00
10:35 PM,48.2,33.8,58,30.08,10.0,WNW,11.5,-,N/A,,Clear,300,2013-03-18 05:35:00
10:55 PM,48.2,35.6,62,30.08,10.0,WNW,13.8,-,N/A,,Clear,300,2013-03-18 05:55:00
11:15 PM,48.2,33.8,58,30.08,10.0,WNW,15.0,20.7,N/A,,Clear,290,2013-03-18 06:15:00
11:35 PM,46.4,35.6,66,30.08,10.0,WNW,13.8,-,N/A,,Clear,300,2013-03-18 06:35:00
11:55 PM,44.6,33.8,66,30.08,10.0,WNW,10.4,-,N/A,,Clear,300,2013-03-18 06:55:00